Theta_e
285 285 285 285 285 285 285 285 285 285 285 285 285 285 285 285 285 285 285 285 285 286 286 286 286 286 286 286 286 285 285 285 285 286 286 286 286 286 286 286 287 287 287 287 287 287 287 287 288 288 288 288 288 288 288 288 288 288 289 289 289 289 289 289 290 290 290 290 290 290 290 290 291 291 291 291 291 291 292 292 292 292 292 292 292 292
285 285 285 285 285 285 285 285 285 285 285 285 285 284 284 284 285 285 285 285 285 285 285 286 285 286 286 285 285 285 285 285 285 285 285 286 286 286 286 286 286 286 286 287 287 287 287 287 287 287 287 288 288 288 288 288 288 288 289 289 289 289 289 289 289 289 289 290 290 290 290 290 290 290 290 290 290 291 291 291 291 291 292 292 292 292
285 285 285 285 285 285 285 285 285 285 285 285 284 284 284 284 285 285 285 285 285 285 285 285 285 285 285 285 285 285 285 285 285 285 285 285 286 286 286 286 286 286 286 286 286 286 286 287 287 287 287 287 288 288 288 288 288 288 288 289 289 289 289 289 289 289 289 289 289 289 289 289 289 290 290 290 290 290 290 290 290 291 291 291 291 291
285 285 285 285 285 285 285 285 285 285 285 284 284 284 284 284 285 285 285 285 285 285 285 285 285 285 285 285 285 285 285 285 285 285 285 285 286 286 286 286 286 286 286 286 286 286 286 287 287 287 287 287 287 288 288 288 288 288 288 288 288 288 289 289 289 289 289 289 289 289 289 289 289 289 289 289 289 289 290 290 290 290 290 290 290 291
285 285 285 285 284 284 285 285 285 284 284 284 284 284 284 284 285 285 285 285 285 285 285 285 285 285 285 285 285 285 285 285 285 285 285 286 286 286 286 286 286 286 286 286 286 286 286 286 287 287 287 287 287 288 288 288 288 288 288 288 288 288 288 288 288 288 288 288 288 288 288 288 288 288 289 289 289 289 289 289 289 290 290 290 290 290
285 285 284 284 284 284 285 285 284 284 284 284 284 284 284 285 285 285 285 285 286 286 285 285 285 285 285 285 285 285 285 285 285 285 285 286 286 286 286 286 286 286 286 286 286 286 286 286 286 287 287 287 287 287 287 287 288 288 288 288 288 288 288 288 288 288 288 288 288 288 288 288 288 288 288 288 288 288 289 289 289 289 289 289 290 290
285 284 284 284 285 285 285 285 285 284 284 284 284 284 284 285 285 285 286 286 286 285 285 285 285 285 285 285 285 285 285 285 285 285 286 286 286 286 286 285 285 285 285 286 286 286 286 286 286 286 286 287 287 287 287 287 287 287 287 287 287 287 287 287 287 287 287 287 287 287 287 287 287 287 288 288 288 288 288 289 289 289 289 289 290 290
284 284 285 285 285 285 285 285 285 284 284 284 284 284 285 285 285 286 286 286 285 285 285 284 284 284 285 285 285 285 285 285 285 285 285 286 286 286 285 285 285 285 285 286 286 286 286 286 286 286 286 286 286 287 287 287 286 286 287 287 287 287 287 287 287 287 287 287 287 287 287 287 287 287 287 288 288 288 288 288 289 289 289 289 290 290
285 285 285 285 286 286 285 285 284 284 284 284 284 284 285 285 286 286 286 285 285 284 284 284 284 284 285 285 285 285 285 285 285 285 285 285 285 285 285 285 285 285 285 285 285 286 286 286 286 286 286 286 286 286 286 286 286 286 286 286 286 286 286 286 286 287 286 287 287 287 287 287 287 287 288 288 288 288 288 288 288 289 289 290 290 290
285 285 285 286 286 285 285 284 284 284 284 284 284 285 285 286 286 286 285 285 284 284 284 284 284 284 284 285 285 285 285 285 285 285 285 285 285 285 285 285 285 285 285 285 285 286 286 286 286 286 286 286 286 286 286 286 286 286 286 286 286 286 286 286 286 286 286 286 286 287 287 287 287 288 288 288 288 288 289 289 289 289 289 290 290 290
285 285 286 285 285 285 284 284 284 284 284 284 285 285 286 286 285 285 284 284 284 284 284 284 284 284 284 284 284 285 285 285 285 285 285 285 285 285 285 285 285 285 285 285 285 286 286 286 286 286 286 286 286 286 286 286 286 286 286 286 286 286 286 286 286 286 286 286 287 287 287 287 287 287 288 288 288 288 289 289 289 289 289 289 290 290
285 285 285 285 284 284 284 283 284 284 284 284 285 285 285 285 285 284 284 284 284 284 284 284 284 284 284 284 284 284 284 284 285 285 285 285 285 285 285 285 285 285 285 285 285 286 286 286 286 286 286 286 286 286 286 286 286 286 286 286 286 286 286 286 286 286 286 287 287 287 287 287 287 288 288 288 288 288 288 288 288 289 289 289 289 289
285 285 284 284 284 284 284 284 284 284 284 285 285 285 285 284 284 284 283 283 283 283 283 283 283 284 284 284 284 284 284 284 284 285 285 285 285 285 285 285 285 285 285 285 285 286 286 286 286 286 286 286 286 286 286 287 287 287 287 287 286 286 286 286 286 286 286 287 287 287 287 287 288 288 288 288 288 288 288 288 288 288 288 288 289 289
284 284 284 284 284 284 284 284 284 284 284 285 285 284 284 284 283 283 283 283 283 283 283 283 283 284 284 284 284 284 284 284 285 285 285 285 285 285 285 285 285 285 285 285 285 286 286 286 286 286 286 286 287 286 287 287 287 287 287 286 286 286 286 286 286 286 286 287 287 287 287 287 288 288 288 288 288 288 288 288 288 288 288 288 288 289
284 285 285 284 284 284 284 284 284 284 284 284 284 284 283 283 283 283 283 283 283 283 283 283 283 284 284 284 284 285 285 285 285 285 285 285 285 285 285 284 284 284 284 284 285 285 286 286 286 286 286 287 287 287 287 287 287 286 286 286 286 286 286 286 286 286 286 286 287 287 287 287 287 288 288 288 288 288 288 288 288 288 288 288 288 289
285 285 285 285 284 284 284 284 284 284 284 284 284 283 283 283 283 283 283 283 283 283 283 283 284 284 284 284 285 285 285 285 285 285 285 285 285 284 284 284 284 284 284 284 285 285 286 286 286 286 286 287 287 287 287 286 286 286 286 286 286 286 286 286 286 286 286 286 287 287 287 287 287 288 288 288 288 288 288 288 288 288 288 288 288 288
286 285 285 285 284 284 284 284 284 284 284 284 283 283 283 283 283 283 283 283 283 283 283 284 284 284 284 285 285 285 285 285 285 285 285 284 284 284 284 284 283 284 284 285 285 285 286 286 286 286 286 286 287 287 286 286 286 286 286 286 286 286 286 286 286 286 286 286 286 287 287 287 287 288 288 288 288 288 288 288 288 288 288 288 288 288
285 285 285 284 284 284 284 284 284 284 283 283 283 283 283 283 283 283 283 283 283 284 284 284 284 284 285 285 285 285 285 285 285 284 284 284 284 284 284 284 283 284 284 285 285 285 285 286 286 286 286 286 286 286 286 286 286 286 286 286 286 286 286 286 286 286 286 286 286 287 287 287 287 287 287 288 288 288 288 288 288 288 288 288 288 288
284 284 284 284 284 284 284 284 283 283 283 283 283 283 283 283 283 283 283 283 284 284 284 285 285 285 285 285 285 285 285 284 284 284 283 283 283 283 284 283 283 284 284 285 285 285 285 285 286 286 286 286 286 286 286 286 286 286 286 286 286 286 286 286 286 286 286 286 286 286 286 286 287 287 287 287 287 287 287 288 288 288 288 288 288 289
284 284 283 283 283 283 283 283 283 283 283 283 283 283 283 283 283 283 284 284 284 285 285 285 285 285 285 285 285 284 284 284 284 283 283 283 283 283 283 283 283 283 284 284 285 285 285 285 285 286 286 286 286 286 286 286 286 286 286 286 285 285 285 285 286 286 286 286 286 286 286 286 286 287 287 287 287 287 287 288 288 288 288 288 288 288
284 284 283 283 283 283 283 283 283 283 283 283 283 283 283 283 284 284 284 285 285 285 285 285 285 285 285 284 284 284 284 283 283 283 282 282 282 283 283 283 283 283 283 284 284 285 284 284 285 286 286 286 286 286 286 286 286 286 286 285 285 285 285 285 285 285 286 286 286 286 286 286 286 286 287 287 287 287 287 287 288 288 288 288 288 288
284 284 283 283 283 283 283 283 283 283 283 283 283 283 284 284 285 285 285 285 285 285 285 285 285 284 284 284 283 284 284 283 283 282 282 282 282 282 283 283 282 282 283 283 284 284 284 284 284 285 286 286 286 286 286 286 286 285 285 285 285 285 285 285 285 285 285 286 286 286 286 286 286 286 286 286 287 287 287 287 287 287 287 287 287 287
284 284 283 283 283 283 283 283 283 283 283 284 284 284 285 285 286 286 286 286 285 285 285 284 284 283 283 283 284 284 284 283 283 282 281 281 282 282 283 282 282 282 282 283 283 283 283 283 284 285 285 285 286 285 285 285 285 285 285 285 285 285 285 285 285 285 285 285 286 286 286 286 286 286 286 286 286 286 286 286 287 287 287 287 287 287
283 283 283 284 284 283 283 283 283 284 284 284 285 285 286 286 286 286 285 285 284 284 284 283 283 283 283 283 283 283 284 283 282 281 281 281 281 282 282 282 282 282 282 283 283 283 283 283 283 284 284 285 285 285 285 285 285 285 285 285 285 285 285 285 285 285 285 285 285 285 286 286 286 286 286 286 286 286 286 286 286 287 287 287 287 287
284 284 284 284 284 283 283 284 284 284 285 285 285 286 286 286 285 285 284 284 284 283 283 282 282 282 282 282 282 282 283 283 282 281 281 281 281 282 282 282 282 282 282 283 283 282 282 283 283 283 284 284 285 285 285 285 285 285 285 285 285 285 285 285 285 285 285 285 285 285 285 285 285 285 286 286 286 286 286 286 286 286 286 287 287 287
284 284 284 284 284 284 284 284 284 284 284 285 285 285 284 284 284 284 283 283 283 282 282 281 281 281 281 281 281 282 282 282 282 281 281 281 281 282 282 282 282 282 282 282 282 282 282 283 283 283 284 284 285 285 285 285 285 285 285 285 285 285 285 285 285 285 285 285 285 285 285 285 285 285 285 286 286 286 286 286 286 286 286 286 287 287
284 284 284 284 284 284 284 284 284 284 284 283 283 283 283 282 282 282 282 282 282 281 281 281 281 281 281 281 281 282 282 282 282 281 281 281 281 282 282 282 282 282 282 282 282 282 282 282 283 283 283 284 284 285 285 285 285 285 285 285 285 285 285 285 285 285 285 285 285 285 285 285 285 285 285 286 286 286 286 286 286 286 286 286 286 286
284 284 284 284 284 284 284 283 283 283 283 283 283 283 282 281 281 281 281 281 281 281 281 281 281 281 281 281 281 281 282 282 282 282 282 282 281 282 282 282 282 282 282 282 282 282 282 282 282 283 283 283 284 284 284 284 284 284 285 285 285 285 285 285 285 285 285 285 285 285 285 285 285 285 285 285 285 286 286 286 286 286 286 286 286 286
284 284 284 284 284 284 284 284 284 284 284 284 284 283 282 281 281 281 281 281 281 281 281 281 281 281 281 281 281 281 282 282 282 282 282 282 282 282 282 282 282 282 282 282 282 282 282 282 282 282 283 283 283 283 283 284 284 284 285 285 285 286 286 285 285 285 285 285 285 285 285 285 285 285 285 285 285 285 286 286 286 286 286 286 286 286
284 284 284 284 284 284 284 284 284 285 285 284 284 283 282 281 281 281 281 281 281 281 281 281 281 281 281 281 281 281 282 282 283 283 282 282 282 282 282 282 282 282 282 282 282 282 282 282 282 282 282 282 283 283 283 284 284 285 285 285 285 286 286 285 285 285 285 285 285 285 285 285 285 285 285 285 285 285 285 286 286 286 285 285 285 285
284 284 285 285 285 285 285 285 285 285 285 285 284 283 283 282 281 281 281 281 281 281 281 281 281 281 281 281 281 281 282 283 283 283 282 282 282 282 282 282 282 282 282 282 282 282 282 282 282 282 282 282 282 283 283 283 284 284 284 285 285 285 285 285 285 285 285 285 285 285 285 285 285 285 285 285 285 285 286 286 286 285 285 285 285 285
285 285 285 285 285 285 285 285 285 285 285 285 284 284 283 282 281 281 280 281 281 281 281 281 281 281 281 281 281 281 282 283 284 283 282 282 281 281 281 281 281 281 282 282 282 282 282 282 282 282 282 282 282 282 282 283 283 284 284 284 285 285 285 285 285 284 285 285 285 285 285 285 285 285 285 285 286 286 286 286 286 285 285 285 285 285
285 285 285 285 285 285 285 286 285 285 285 285 285 284 283 283 282 281 281 280 280 281 281 281 281 281 281 281 281 281 282 283 284 283 282 282 281 281 281 281 281 281 281 281 281 281 282 282 282 282 282 282 282 282 282 283 283 283 284 284 284 284 285 285 284 284 285 285 285 285 285 285 286 286 286 286 286 286 286 286 286 285 285 285 285 285
285 285 285 285 285 285 285 285 285 285 285 285 284 284 283 282 282 281 281 281 280 280 281 281 281 281 281 281 281 281 282 283 284 283 282 282 281 281 281 281 281 281 281 281 281 281 281 282 282 282 282 282 282 282 282 282 283 283 283 284 284 284 284 284 284 284 285 285 285 285 286 286 286 286 286 286 286 286 286 286 286 285 285 285 285 285
285 285 285 285 285 285 285 285 284 284 284 284 284 284 283 282 282 281 281 281 281 281 280 281 281 281 281 281 281 281 282 284 284 283 282 282 281 281 281 281 281 281 281 281 281 281 281 281 282 282 282 282 282 282 282 282 283 283 283 283 284 284 284 284 284 284 285 285 285 285 286 286 286 286 286 286 286 286 286 286 286 285 285 285 285 285
285 285 285 285 285 284 284 284 284 284 284 284 284 283 283 282 282 282 282 282 281 281 281 281 281 281 281 281 281 281 282 283 283 283 282 282 281 281 281 281 281 281 281 281 281 281 281 281 281 282 282 282 282 282 282 283 283 283 283 284 284 284 284 284 284 284 284 285 285 285 285 285 286 286 286 286 286 286 285 285 285 285 285 285 285 285
285 285 285 284 284 284 284 283 283 283 283 283 284 284 283 283 282 282 282 282 282 282 282 282 282 282 282 282 281 281 282 283 283 283 283 282 282 281 281 281 281 281 281 281 281 281 281 281 281 282 282 282 282 282 282 283 283 283 283 284 284 284 284 284 284 284 284 284 285 285 285 285 285 285 285 285 285 285 285 285 285 285 285 285 285 285
284 283 284 284 284 283 283 283 283 283 283 283 284 284 283 283 283 283 283 283 284 283 283 283 283 283 283 283 283 283 283 283 283 283 283 283 282 282 281 281 281 281 282 282 281 281 281 281 281 281 282 282 282 282 282 282 283 283 283 284 284 284 284 284 285 285 284 284 285 285 285 285 285 285 285 285 285 285 285 285 285 285 285 285 285 285
283 283 283 284 284 283 283 283 283 283 284 284 284 284 283 284 284 284 284 284 284 284 284 284 284 284 284 284 284 284 284 284 284 284 283 283 282 282 282 281 282 282 282 282 282 282 282 281 282 282 282 282 282 282 282 282 283 283 283 283 284 284 284 285 285 284 284 284 284 285 285 285 285 285 285 285 285 285 285 285 285 285 285 285 285 285
283 283 283 284 284 283 283 283 283 284 284 284 284 284 284 284 284 285 284 284 284 284 284 284 284 284 284 284 284 284 284 284 284 284 283 283 283 282 282 282 282 282 282 282 282 282 282 282 282 282 282 282 282 282 282 282 283 283 283 283 283 284 284 285 285 285 285 285 285 285 285 285 285 284 284 285 285 285 285 285 285 285 285 285 285 285
283 283 284 284 284 284 284 284 284 284 284 284 284 284 284 284 284 284 285 285 285 284 284 284 283 284 284 284 284 284 284 284 284 284 283 283 283 282 282 282 282 282 282 282 282 282 282 282 282 282 282 282 282 282 282 283 283 283 283 283 283 284 284 284 285 285 285 285 285 285 284 284 284 284 284 285 285 285 285 285 285 285 285 285 285 285
283 283 284 284 284 284 284 285 285 284 284 284 284 284 284 284 284 284 284 284 284 284 284 283 283 283 284 284 285 285 284 284 284 283 283 283 283 282 282 282 282 282 282 282 282 282 282 282 282 282 282 282 282 282 282 283 283 283 283 283 283 283 284 284 285 285 285 285 285 285 284 284 284 284 285 285 285 285 285 285 285 285 285 285 285 285
284 284 284 284 284 284 284 284 284 284 284 284 284 284 285 284 284 283 283 283 283 283 283 282 282 282 283 284 285 285 285 284 284 283 283 283 283 282 282 282 282 282 282 282 282 282 282 282 282 282 282 282 282 282 283 283 283 283 283 284 283 283 284 284 285 285 285 285 284 284 284 284 284 285 285 285 285 285 285 285 285 285 285 285 285 285
284 284 284 284 284 284 284 284 284 284 284 284 285 285 285 285 284 284 283 283 283 283 283 282 282 282 282 282 283 284 285 285 284 284 283 283 283 283 282 282 282 282 282 282 282 282 282 282 282 282 283 283 283 283 283 283 283 283 284 284 284 284 284 284 285 285 284 284 284 284 284 285 285 285 285 285 285 285 285 285 285 285 285 285 285 285
283 284 284 284 284 284 285 285 284 284 284 285 286 286 285 285 284 284 283 283 283 283 282 282 282 281 281 282 282 283 284 284 284 284 284 283 283 283 283 282 282 282 282 282 282 282 282 282 283 283 283 283 283 283 283 283 283 283 284 284 284 284 284 284 284 284 284 284 284 284 285 285 285 285 285 285 285 285 285 285 285 285 285 285 285 285
283 284 284 285 285 286 286 285 285 285 285 286 286 285 285 285 284 284 283 283 283 282 282 282 281 281 281 282 282 282 282 283 284 284 284 284 284 283 283 283 283 283 283 283 283 283 283 283 283 283 283 283 283 283 283 283 283 284 284 284 285 285 285 285 285 284 284 284 284 285 285 285 285 285 285 285 285 285 285 285 285 285 285 285 285 285
284 284 285 285 285 285 286 286 285 285 285 286 286 285 285 285 284 284 284 283 283 282 282 282 282 281 281 282 282 282 282 282 282 283 283 284 284 284 284 283 283 283 283 283 283 283 283 283 283 283 283 283 283 283 284 284 284 284 284 284 285 284 284 284 285 284 284 284 285 285 285 285 285 285 285 285 285 285 285 285 285 285 285 285 285 285
284 285 285 285 285 285 285 285 285 285 285 285 286 286 285 285 284 284 284 283 283 282 282 282 282 282 282 282 282 282 282 281 282 282 282 283 283 284 284 284 284 284 284 283 283 283 284 284 284 283 283 283 283 284 284 284 284 284 284 285 284 284 284 284 284 284 284 285 285 285 285 285 285 285 285 285 285 285 285 285 285 285 285 285 285 285
285 285 285 285 284 284 284 285 285 285 284 285 285 286 286 285 285 284 284 283 283 283 282 282 282 282 282 282 282 282 282 282 282 282 282 282 283 283 283 283 284 284 284 284 284 284 284 284 284 284 284 284 284 284 284 284 285 285 285 284 284 284 284 284 285 285 285 285 285 285 285 285 285 285 285 285 285 285 285 285 285 285 285 285 285 285
286 285 285 285 284 284 284 285 285 284 285 285 285 285 286 286 285 285 284 284 283 283 282 282 282 282 282 282 282 282 282 282 282 282 282 283 283 283 283 283 283 283 283 284 284 284 284 284 284 284 284 284 284 284 284 284 285 285 284 284 284 285 285 285 285 285 285 285 285 285 285 285 285 285 285 285 285 285 285 285 285 285 285 285 285 285
286 286 285 285 284 284 284 285 285 285 285 285 285 285 285 285 285 285 285 284 283 283 283 282 282 282 282 282 282 282 282 282 282 282 282 283 283 283 283 283 283 283 283 283 283 283 283 283 283 284 284 284 284 284 284 285 285 285 285 285 285 285 285 285 285 285 285 285 285 285 285 285 285 285 285 285 285 285 285 285 285 285 285 285 285 285
Wind_Speed
29 30 30 30 30 31 31 31 30 30 29 28 27 26 25 25 24 24 24 24 25 25 25 25 26 26 27 27 28 28 28 28 27 27 26 25 25 25 25 25 26 26 26 27 27 27 27 27 27 27 27 27 27 27 27 27 26 26 26 26 26 26 26 26 27 27 28 28 28 29 29 29 29 30 30 30 30 30 30 30 30 30 31 31 32 32
30 30 30 29 29 30 31 30 29 28 28 28 27 27 26 27 27 27 27 26 26 26 26 26 27 27 28 29 29 30 29 29 28 27 26 26 25 25 25 25 26 26 26 26 26 26 26 26 26 27 27 27 27 27 27 27 26 26 26 26 26 26 27 27 27 28 28 29 29 29 30 30 30 30 30 30 30 30 30 30 30 30 30 31 31 31
30 30 30 29 29 29 30 29 28 27 27 28 28 28 28 28 28 28 28 28 27 26 26 26 27 28 29 30 30 30 30 30 29 28 27 26 26 25 25 25 25 25 25 24 24 24 25 25 26 26 27 27 27 27 27 26 26 26 26 26 27 27 27 28 28 28 29 29 29 30 30 30 30 30 31 31 31 30 30 31 31 31 31 31 32 32
29 29 30 30 29 29 28 29 28 28 28 29 29 29 29 29 29 29 28 28 27 27 26 26 27 29 30 31 31 31 31 30 29 28 27 26 26 25 25 24 24 24 23 23 23 24 25 25 26 26 27 27 27 27 27 26 26 26 27 27 27 28 28 28 28 28 29 29 29 29 30 30 30 30 30 30 30 30 31 31 31 32 32 32 33 33
29 28 29 29 29 28 28 28 28 29 29 29 29 29 29 29 29 28 28 27 27 27 27 27 28 29 31 32 32 32 31 30 29 28 27 26 26 25 25 24 24 24 24 24 24 25 26 26 26 27 27 27 27 27 27 27 27 27 28 28 28 28 28 28 28 28 28 28 29 29 29 29 29 30 30 30 30 30 30 31 31 31 32 32 33 33
28 28 27 27 27 28 28 28 28 28 29 29 30 29 29 28 28 28 27 26 26 27 28 28 29 30 31 32 32 32 31 30 29 28 27 27 26 25 25 25 25 25 25 26 26 26 27 27 27 27 27 28 28 29 29 29 29 29 29 29 29 29 28 28 28 28 27 27 28 28 28 28 29 29 29 29 29 29 30 30 30 30 31 31 31 32
28 27 26 26 26 27 27 26 26 27 28 30 31 31 29 28 27 27 26 26 27 28 29 29 30 31 31 32 32 32 31 30 30 29 28 27 26 26 26 26 26 26 27 27 27 27 28 28 28 28 29 29 30 30 30 30 30 30 30 29 29 28 28 27 27 27 27 27 27 27 27 27 28 28 28 28 28 28 28 28 29 29 29 29 30 30
27 26 25 25 26 26 26 25 26 26 28 30 31 31 30 29 27 26 26 27 27 28 29 30 31 31 32 32 32 31 31 31 30 30 29 28 27 27 28 28 28 28 28 28 29 29 29 29 30 30 31 31 31 31 31 30 29 29 28 27 27 26 26 25 25 25 25 26 26 26 26 26 26 26 26 26 26 27 27 27 28 28 28 28 29 29
25 26 26 26 26 26 27 27 27 28 29 29 29 29 29 29 28 27 27 27 27 27 28 29 31 32 32 32 32 31 31 31 30 30 29 29 29 29 29 29 29 29 30 30 30 30 31 31 32 32 32 32 31 30 29 28 27 26 25 25 24 24 24 24 23 23 24 24 25 25 25 25 25 25 25 25 26 26 26 27 27 28 28 28 29 29
24 25 26 26 25 26 27 29 30 31 29 28 26 25 26 26 27 27 28 28 28 29 29 29 31 32 33 32 32 32 32 31 30 29 29 29 29 29 29 30 30 31 31 32 32 32 33 33 34 33 32 31 30 28 27 26 25 24 23 23 22 22 22 22 22 22 23 23 23 23 24 24 25 25 26 26 26 27 27 28 28 29 29 29 29 30
25 25 25 26 26 26 28 30 31 31 28 26 24 23 23 23 24 26 28 29 30 31 30 30 30 31 32 33 33 32 32 32 31 30 30 30 30 30 30 30 31 32 33 34 34 35 35 34 34 33 31 29 27 26 25 24 23 22 22 22 22 22 22 22 22 22 22 23 23 23 24 25 26 26 26 27 27 28 28 29 29 29 30 30 30 30
25 25 26 27 28 28 29 29 29 27 25 23 23 23 22 22 23 25 28 30 31 31 31 31 30 30 31 32 33 32 31 31 31 31 31 31 31 31 32 32 33 34 35 36 37 37 36 34 33 31 28 26 25 24 23 23 23 23 22 22 22 22 22 22 23 23 23 23 24 25 25 26 26 27 27 28 28 28 29 29 29 30 30 30 31 31
24 25 26 27 27 27 27 27 26 24 22 22 22 23 23 24 25 26 28 28 29 30 30 31 31 31 31 31 31 31 30 30 30 30 30 31 31 32 32 33 34 36 37 38 38 37 35 34 31 29 26 24 24 23 23 23 23 23 23 23 23 23 23 24 24 24 24 24 25 25 26 26 27 27 28 28 29 29 29 30 30 30 30 31 31 31
24 24 25 25 25 25 25 24 24 23 23 23 23 24 25 26 27 27 27 27 28 29 30 30 31 32 31 30 29 28 28 28 29 30 30 30 31 32 33 34 35 36 38 38 38 37 35 33 30 27 25 24 24 24 24 24 25 24 24 24 24 24 25 25 26 26 26 26 25 26 26 27 27 28 28 29 29 29 30 30 30 31 31 31 31 31
24 24 25 26 26 25 24 24 24 24 24 24 25 26 27 27 27 26 26 27 27 29 30 31 32 32 30 28 27 26 26 27 27 29 31 32 33 34 34 34 36 37 38 38 38 36 33 31 29 27 26 25 25 25 25 26 26 25 25 25 25 25 26 26 26 27 27 27 27 27 27 27 27 28 28 29 29 30 30 30 30 31 31 31 31 31
25 25 25 26 26 25 24 24 24 25 25 26 26 26 27 26 26 26 26 27 28 29 29 30 31 31 30 28 26 25 25 26 27 30 33 35 36 35 35 35 37 38 39 38 37 35 32 30 28 27 27 26 26 26 26 26 26 26 25 25 25 25 25 26 26 27 27 28 28 28 28 27 28 28 28 29 29 30 30 30 30 30 30 31 31 31
25 25 26 27 27 26 25 25 25 25 26 26 26 26 26 26 26 27 27 28 29 29 29 29 30 30 31 30 28 26 25 27 29 32 34 36 37 37 36 35 37 38 39 37 35 33 31 30 28 27 27 27 27 27 27 27 27 26 26 25 25 25 26 26 27 27 28 28 29 29 29 28 28 28 28 29 29 29 29 29 29 29 29 29 29 30
26 26 26 27 27 26 25 25 26 26 26 27 27 27 27 27 27 28 28 29 29 29 30 30 29 30 30 31 30 29 28 29 31 34 36 38 39 39 38 36 36 36 37 36 33 32 30 29 29 28 28 28 28 28 27 27 27 26 26 26 26 26 27 27 27 28 28 28 29 29 29 29 28 28 28 28 28 28 28 28 28 28 28 28 29 29
27 27 27 27 27 26 26 26 26 26 26 26 27 27 28 28 28 29 29 30 30 31 32 31 31 31 32 32 33 32 32 32 33 36 37 38 40 39 38 36 35 35 34 34 32 31 30 29 29 29 29 29 29 28 28 28 27 27 27 27 27 27 27 27 28 28 28 28 28 28 28 28 28 27 27 27 27 27 27 27 28 28 28 29 29 29
27 27 27 28 28 28 27 27 27 27 27 27 27 28 29 29 29 30 30 31 33 33 33 32 31 31 32 33 34 35 35 35 37 38 38 39 39 39 36 34 33 33 33 33 32 30 30 30 30 30 30 30 30 30 29 29 28 28 27 27 27 27 27 28 28 28 28 28 27 27 27 27 27 27 27 28 28 28 28 28 29 29 29 29 30 30
27 27 27 27 28 28 28 28 28 28 27 27 28 28 29 30 30 31 32 33 33 33 32 31 30 30 32 34 36 38 40 39 38 37 36 37 37 36 34 32 32 32 33 33 32 31 31 31 32 32 32 32 32 31 31 30 30 29 28 28 28 28 28 28 28 28 27 27 27 27 27 28 28 29 30 30 30 30 29 29 29 29 29 30 30 30
26 27 27 27 28 28 29 29 29 28 27 27 28 29 30 31 32 33 33 32 31 30 29 28 30 33 35 37 40 42 42 39 37 35 34 35 35 35 34 32 31 31 32 33 32 32 32 32 33 34 34 34 33 33 33 32 31 30 29 28 28 28 28 28 28 27 27 27 28 28 29 29 30 30 31 31 31 30 30 29 29 29 29 29 29 29
26 28 28 28 28 28 28 28 28 27 26 27 28 29 31 31 32 32 31 29 29 30 31 34 36 38 40 41 42 41 39 35 32 30 30 31 33 33 33 31 30 30 32 33 33 32 33 33 34 35 35 35 35 34 34 33 32 31 30 29 28 28 28 28 28 28 28 28 29 29 29 30 30 30 30 30 30 29 28 28 28 28 28 28 28 28
26 28 28 28 27 26 26 27 27 27 27 27 28 30 31 31 30 29 29 30 33 36 38 39 39 39 40 39 38 36 33 30 27 26 26 29 31 32 32 31 30 30 32 33 33 32 33 33 34 35 36 36 36 35 34 33 32 31 30 30 29 29 28 28 28 29 29 29 29 29 29 29 29 28 28 28 28 28 27 27 27 27 27 27 27 28
25 25 25 25 25 25 25 25 25 26 26 27 28 29 30 31 32 34 36 37 38 38 36 35 35 35 35 34 33 32 31 28 26 25 26 28 30 32 32 31 30 31 32 33 33 32 32 33 34 36 36 37 37 35 34 33 32 32 31 30 30 30 29 29 29 30 30 29 29 28 28 27 27 27 27 27 27 27 27 27 27 27 27 27 27 28
22 22 23 23 23 23 24 24 24 25 25 26 28 30 32 34 35 36 36 36 34 32 30 30 31 32 32 31 31 31 30 28 26 25 26 27 29 32 33 32 30 31 32 33 33 31 31 33 35 36 37 37 37 35 34 34 33 33 32 31 31 31 31 30 30 30 29 29 28 27 27 27 27 27 27 27 27 27 27 27 27 27 27 27 28 29
21 22 23 23 23 23 24 24 25 27 27 28 29 30 31 31 32 31 31 30 28 27 27 28 29 30 31 30 30 31 30 29 28 27 26 26 29 31 32 31 30 30 32 33 33 32 32 33 35 36 37 37 36 36 35 35 34 34 33 32 32 31 31 31 30 30 29 28 28 27 27 27 27 27 27 27 27 27 27 27 27 27 27 27 28 29
22 23 24 24 25 26 26 28 29 29 29 29 28 26 24 24 24 25 25 25 25 25 26 27 28 29 30 30 30 31 32 31 29 27 25 25 27 29 30 31 30 31 32 33 34 34 34 34 35 36 36 36 36 36 36 36 35 34 34 33 32 32 31 30 30 30 29 29 29 28 28 28 28 27 27 27 27 27 27 27 27 27 26 27 28 29
24 25 26 27 28 29 30 30 30 29 28 25 22 20 19 19 20 22 23 23 23 24 25 26 28 29 30 31 32 33 33 31 28 25 23 24 27 29 31 31 30 30 31 33 35 35 33 32 31 31 32 33 34 35 36 36 36 35 34 33 32 32 31 31 31 30 30 30 30 29 29 29 28 28 27 27 27 26 26 26 25 25 26 27 28 29
26 27 28 29 29 30 30 30 28 26 23 21 19 18 18 19 20 21 22 22 22 23 25 27 28 29 30 31 32 32 32 30 27 24 23 25 28 31 32 31 31 31 31 32 32 33 32 32 30 29 29 31 34 36 37 37 37 36 35 34 34 33 32 32 32 32 31 31 31 31 30 30 29 28 27 27 26 25 25 24 24 24 25 26 27 28
28 29 30 30 29 29 28 26 24 22 21 20 20 20 21 21 21 21 22 22 22 23 25 26 28 29 29 30 29 29 30 31 29 27 26 27 30 32 33 32 32 32 31 30 30 30 30 32 32 30 30 31 34 36 37 37 37 36 36 36 35 35 34 33 33 33 33 33 33 32 31 30 29 28 27 26 25 25 24 23 23 23 25 26 27 28
29 29 29 29 28 27 25 23 22 21 22 22 22 22 22 22 22 22 22 22 23 24 25 26 28 29 30 30 30 30 33 34 33 30 28 29 31 33 33 32 32 33 33 31 30 30 29 31 34 35 34 34 35 36 37 37 37 37 36 37 37 37 36 35 35 35 35 35 34 33 32 31 29 28 27 26 25 24 23 22 22 23 24 25 26 27
28 28 27 27 26 25 23 22 22 22 23 23 23 24 23 23 23 23 23 23 23 24 25 27 28 30 31 31 33 34 36 36 34 31 29 29 31 32 33 33 33 34 34 33 32 32 32 34 36 37 37 36 35 35 36 37 37 37 36 37 37 38 37 37 36 36 36 36 35 34 32 31 30 28 27 26 25 24 23 23 22 22 22 24 25 26
27 26 26 25 24 23 23 23 23 23 24 24 24 24 24 24 24 24 24 24 24 25 26 27 28 30 31 33 34 36 36 35 33 31 30 30 32 33 34 34 34 35 34 34 33 33 34 35 36 36 36 36 35 35 36 36 36 36 36 36 37 38 38 38 38 38 37 37 36 35 33 32 30 29 28 27 26 25 24 23 22 22 22 23 24 26
25 25 24 24 23 23 24 24 24 24 24 24 24 24 24 25 25 25 25 25 25 25 25 26 27 29 30 32 34 36 37 36 33 31 31 32 34 35 35 35 35 35 35 35 35 35 34 34 35 35 36 36 37 36 35 35 34 35 35 36 37 38 38 38 38 38 38 37 37 35 34 33 32 31 29 28 27 27 26 25 24 23 23 23 24 26
24 23 23 23 23 24 24 24 24 24 24 25 25 25 25 25 25 25 25 25 25 25 25 25 26 27 28 30 32 35 36 36 34 32 31 32 33 35 36 36 35 35 35 36 37 37 36 37 36 36 35 35 36 36 35 34 35 35 37 37 38 38 38 38 38 38 38 37 37 36 35 34 34 33 32 31 30 29 28 27 26 25 24 24 24 25
23 23 23 23 23 24 24 24 25 25 25 25 25 25 25 25 25 25 25 25 24 24 24 25 25 26 27 29 30 33 34 35 34 32 31 30 31 33 35 36 35 34 35 36 38 38 38 37 37 36 34 33 33 34 36 37 37 38 38 39 39 39 38 38 37 37 37 37 37 37 36 36 35 35 34 33 32 31 29 28 27 26 25 25 24 24
23 23 23 23 23 24 24 25 25 25 25 26 26 26 26 26 26 25 25 25 25 25 25 26 27 28 28 29 30 31 32 33 33 32 30 29 29 30 32 34 34 34 34 35 37 38 38 37 36 36 35 35 35 35 36 38 39 39 40 40 40 40 39 38 37 36 36 36 37 37 37 36 36 36 35 34 33 32 31 30 28 27 27 27 26 26
22 23 23 23 23 23 24 25 25 25 25 26 26 26 26 26 26 26 26 26 26 27 27 28 29 30 30 30 31 31 32 32 32 31 30 29 28 29 30 32 33 33 33 34 35 36 37 38 37 37 37 38 38 38 39 39 39 40 41 41 41 40 39 37 36 35 36 37 37 38 38 37 36 36 36 35 34 34 34 33 31 30 30 30 31 30
22 23 23 23 23 23 24 24 25 25 26 26 26 26 26 26 26 26 27 27 28 28 29 29 30 31 31 32 32 32 32 32 31 31 30 29 29 28 29 31 32 33 33 33 34 35 36 37 38 39 39 39 40 40 41 41 41 41 41 40 40 39 39 38 38 37 37 37 37 37 37 37 37 37 36 36 36 35 35 34 34 33 32 33 34 34
22 23 23 23 23 23 24 24 25 25 26 26 26 26 26 26 27 28 29 29 30 30 30 31 31 32 32 32 32 32 32 32 31 31 30 30 29 29 29 30 31 31 32 33 34 34 35 36 38 39 40 40 41 41 42 42 42 41 39 39 40 41 41 40 39 39 37 37 36 36 36 36 36 37 37 37 37 36 36 36 36 35 34 34 34 35
22 23 23 23 24 24 24 25 25 25 26 26 26 26 26 26 27 28 30 31 31 32 31 31 32 33 34 34 33 33 32 32 32 31 31 30 30 29 29 29 30 31 32 33 34 35 36 36 37 38 39 40 40 41 41 43 43 42 40 40 41 42 42 41 40 37 36 36 36 37 37 36 37 37 37 37 37 37 37 36 36 36 36 36 36 35
22 23 23 23 24 24 25 25 26 26 26 26 26 26 26 26 27 29 30 31 32 32 32 32 32 33 35 36 36 35 34 33 33 32 31 30 30 29 29 29 29 30 31 33 34 36 36 36 37 38 38 39 39 40 41 43 43 43 42 41 41 40 39 40 40 39 37 37 37 37 37 37 38 38 39 39 39 39 38 38 37 37 37 37 37 37
22 23 23 23 24 25 25 25 26 26 26 26 26 26 26 27 28 29 30 31 32 32 32 32 32 33 35 36 36 36 36 34 33 32 31 30 30 29 29 30 30 30 31 32 34 35 36 37 37 38 38 38 39 40 41 42 43 43 43 42 41 39 39 40 41 40 39 38 38 38 38 38 38 39 39 39 40 40 40 40 40 39 39 38 37 37
22 23 23 24 24 25 25 25 26 26 26 26 26 26 27 27 28 29 30 31 32 32 32 32 32 33 33 34 36 37 37 35 34 33 32 31 30 30 30 30 30 31 31 32 33 34 35 36 37 38 37 38 39 40 41 42 42 43 43 42 41 41 41 41 40 39 38 39 39 39 38 38 38 38 38 39 40 40 40 40 39 39 39 39 38 38
22 23 23 24 24 25 25 25 26 26 26 26 26 26 27 28 29 30 30 31 32 32 32 31 32 32 33 35 36 36 37 37 36 35 33 32 31 31 30 30 31 31 32 33 33 34 34 35 37 37 38 38 39 40 40 41 41 42 42 42 41 41 40 39 39 39 39 39 39 39 39 38 37 37 38 39 40 40 40 39 38 38 39 39 39 38
22 22 23 24 24 25 25 26 26 26 26 26 26 27 28 29 30 30 31 31 31 31 32 32 32 32 34 35 35 36 36 37 37 37 35 34 33 33 32 32 32 32 32 33 33 34 35 35 35 36 36 37 39 40 41 40 40 40 41 40 40 40 40 40 40 40 39 39 38 38 38 37 36 36 38 39 40 40 40 39 39 38 38 38 38 38
21 22 23 23 24 25 25 25 26 26 26 26 27 28 28 29 30 30 31 31 31 31 32 32 33 33 34 35 35 35 35 36 36 37 37 36 36 35 34 34 34 33 33 33 33 34 35 35 35 34 34 34 36 38 39 39 39 39 39 39 39 40 40 40 40 39 38 38 37 37 37 36 36 37 39 40 41 41 40 40 39 38 38 37 37 37
21 22 23 23 24 24 25 25 26 26 26 27 28 29 30 30 30 30 30 31 31 32 32 33 33 34 35 35 36 36 35 35 36 37 37 37 36 36 36 36 36 36 36 35 36 36 36 36 35 34 32 31 32 35 37 38 38 38 38 38 39 39 40 40 39 38 37 37 37 38 38 38 38 39 40 41 41 41 41 40 39 38 37 36 36 36
21 22 22 23 24 24 25 25 25 26 26 27 29 30 31 30 30 30 30 31 32 32 33 33 34 34 35 36 36 36 35 36 36 37 37 37 36 36 37 37 37 37 38 38 38 38 37 36 35 33 31 29 29 30 33 35 36 37 37 37 37 38 38 38 38 38 38 37 38 39 39 40 39 39 39 39 40 40 40 40 39 38 36 35 35 35
21 21 22 23 23 24 25 25 25 26 26 28 29 30 31 31 31 31 31 32 32 33 34 34 34 34 35 36 36 36 35 36 36 37 37 37 37 37 37 37 37 37 38 38 38 37 34 33 32 32 31 29 27 26 28 31 34 35 36 37 37 36 36 37 37 38 38 39 40 40 40 40 39 38 37 38 38 39 39 40 39 38 35 34 34 34
Wind_Direction
305 306 308 309 310 310 310 312 313 314 316 318 320 322 324 324 324 325 326 326 326 325 324 324 323 323 322 321 321 319 318 316 315 314 313 312 311 309 307 305 304 303 301 301 299 299 298 298 297 297 297 297 297 297 296 295 294 293 292 291 291 290 289 288 287 286 285 284 283 282 282 281 279 278 277 277 276 275 274 273 272 272 272 272 271 272
307 308 309 310 311 311 311 313 315 317 318 320 323 325 326 326 327 327 327 327 326 325 323 322 321 321 320 319 319 319 318 317 317 316 315 314 312 311 309 307 305 304 302 301 301 300 300 300 299 299 299 298 298 298 297 296 295 294 293 292 291 290 289 289 287 286 285 284 283 282 282 281 280 278 277 277 276 275 274 273 273 272 272 271 271 271
309 310 310 311 312 312 312 315 317 320 321 322 324 326 327 326 325 325 325 325 324 322 321 320 319 318 317 317 317 317 317 317 317 317 316 315 314 312 310 309 308 307 306 305 304 304 303 302 301 301 300 299 299 298 298 297 296 294 293 292 291 290 289 289 288 287 286 284 283 282 282 280 279 278 277 277 276 276 275 274 274 273 272 271 270 270
310 311 312 313 314 313 314 317 319 321 322 323 325 326 326 324 323 323 323 323 322 321 319 318 317 316 315 316 316 317 317 317 317 317 317 316 315 314 313 312 311 311 310 310 309 307 306 304 303 302 301 300 300 299 298 297 296 294 293 292 291 290 289 288 287 287 286 285 284 282 281 280 279 278 278 277 276 276 275 274 273 273 272 271 270 269
310 311 313 315 315 315 316 318 319 320 321 321 322 323 323 322 321 322 322 322 321 318 316 316 315 314 314 314 315 316 316 317 317 317 317 317 317 316 316 316 315 315 314 313 311 309 307 306 305 304 303 301 300 299 298 297 296 295 293 292 291 290 289 288 288 287 286 285 283 282 281 280 279 278 277 277 276 275 274 274 273 273 272 271 270 269
310 312 315 315 315 314 316 316 317 318 318 318 319 320 320 321 322 321 320 319 318 316 315 314 314 313 313 313 314 315 316 317 317 318 318 319 319 320 319 319 318 317 315 313 311 309 308 307 306 304 303 302 301 299 298 297 296 295 294 293 291 290 290 289 288 287 286 285 284 282 281 280 279 278 277 276 276 275 275 274 274 273 273 272 271 270
311 313 315 315 313 313 313 313 313 314 314 315 317 320 321 323 322 320 318 317 316 315 315 314 313 312 312 312 313 315 316 317 318 319 321 322 322 322 322 320 318 316 315 312 310 309 308 307 306 305 303 302 301 300 299 298 297 295 294 293 291 290 289 288 288 287 286 286 285 284 282 281 280 279 278 277 276 276 276 275 275 274 274 273 272 272
311 313 314 313 312 311 309 308 309 311 313 315 318 321 323 323 321 319 317 316 315 315 314 313 312 311 312 313 314 316 318 319 320 322 323 324 324 324 322 320 317 315 313 312 310 309 308 307 306 306 305 304 303 302 301 300 298 297 295 293 292 290 289 288 287 287 287 287 286 285 284 283 282 281 280 279 278 278 277 277 276 276 275 274 274 273
310 311 311 311 310 309 307 306 307 310 314 317 320 321 322 321 319 317 316 315 313 313 312 311 311 311 313 315 316 318 319 320 320 322 323 324 323 323 321 318 316 314 313 312 311 309 309 308 308 307 307 307 306 305 304 302 300 299 296 295 293 292 291 290 289 289 288 288 287 286 286 284 283 282 282 281 280 280 279 278 278 277 276 275 275 274
308 309 309 308 307 306 305 305 307 312 317 320 320 320 320 318 317 316 314 312 311 311 311 311 311 312 314 316 318 320 320 320 321 321 322 322 321 319 317 315 314 313 312 311 310 310 310 310 310 311 311 311 310 308 306 304 302 300 298 296 295 294 294 293 293 292 291 291 291 290 288 286 285 284 283 283 282 281 280 279 278 277 276 275 274 273
308 308 307 305 304 304 304 306 309 315 320 320 319 317 316 315 314 313 312 311 311 312 313 312 313 313 314 316 318 321 321 321 321 321 321 321 320 318 316 314 312 311 310 310 310 310 311 312 314 314 314 313 311 309 307 305 303 301 300 298 298 297 297 297 297 297 296 295 294 292 289 288 286 285 284 284 283 282 280 279 278 277 276 275 274 273
306 305 303 302 303 305 307 309 312 316 318 317 315 313 312 311 310 309 309 310 310 312 313 313 313 313 314 315 317 320 321 320 319 319 319 318 318 316 314 312 310 309 309 309 310 312 314 315 315 316 315 314 312 310 308 306 305 303 302 301 302 302 302 301 300 299 298 295 292 290 288 287 286 285 285 284 282 281 280 279 278 277 276 275 274 273
303 302 302 303 305 307 308 310 312 313 313 312 311 310 309 309 308 308 308 308 309 311 312 312 312 313 314 316 317 318 319 318 316 315 314 313 313 312 311 309 308 308 308 309 310 313 315 316 316 316 315 314 312 310 309 307 306 306 306 306 306 306 304 302 300 297 295 292 290 288 287 287 286 285 284 283 282 281 280 279 278 277 276 275 274 273
302 302 303 304 305 306 308 309 309 309 309 308 307 306 306 308 309 310 309 308 309 310 312 311 311 312 314 316 317 317 316 314 312 311 309 308 308 308 307 306 306 306 307 308 309 312 315 316 316 316 315 313 311 310 310 309 309 309 309 309 308 305 302 299 296 294 293 291 289 288 287 287 286 285 284 283 282 281 281 280 279 278 277 275 274 273
303 303 303 304 304 305 306 306 306 306 306 305 305 305 306 308 310 311 310 309 309 311 312 311 311 311 312 313 314 314 313 310 308 306 305 305 305 306 306 305 305 305 306 306 308 311 314 315 315 314 314 313 312 312 312 312 312 312 312 310 307 303 300 297 295 293 292 292 291 290 289 288 287 285 284 283 282 282 281 280 279 278 277 275 274 273
304 304 303 303 303 303 304 304 304 304 303 303 304 306 308 309 309 310 309 308 309 310 311 311 311 310 310 310 312 312 311 308 305 304 304 304 304 305 305 305 304 304 305 306 308 310 313 314 313 313 313 313 313 313 313 313 313 313 312 310 307 304 301 299 297 295 294 293 292 291 290 288 287 286 284 284 283 282 281 280 278 277 276 275 274 273
303 303 302 302 301 301 302 303 302 302 302 303 304 306 307 307 308 308 307 308 309 309 309 309 308 307 308 309 310 311 310 307 305 304 303 303 303 304 305 304 303 303 304 306 308 310 312 312 313 313 314 314 314 314 314 314 314 313 311 310 308 305 303 301 298 296 294 293 292 291 289 288 287 286 284 283 282 281 280 279 278 277 276 276 275 274
300 299 299 299 299 299 301 302 302 301 302 303 305 306 306 306 307 307 307 307 307 306 306 305 303 301 303 304 306 307 308 306 304 303 303 302 302 304 305 304 303 303 305 307 309 311 311 312 313 314 315 315 315 315 315 314 313 312 311 310 308 306 304 301 299 297 295 294 292 290 289 288 286 285 284 283 282 281 281 280 279 278 277 277 276 275
295 296 296 297 298 299 299 300 300 301 302 303 305 306 306 306 306 306 307 307 306 305 304 302 300 299 299 299 301 303 304 304 303 303 302 301 302 303 305 305 304 305 306 308 310 312 313 314 315 316 316 316 316 316 315 315 314 312 311 310 308 306 304 302 300 298 296 294 292 290 289 288 287 286 286 285 285 284 283 282 281 279 278 277 276 275
295 295 296 298 299 299 298 298 299 301 301 303 305 306 306 306 306 306 306 307 307 305 303 299 297 297 298 298 299 300 301 302 302 302 301 301 301 303 306 307 307 307 307 310 312 314 315 316 317 317 317 317 317 317 316 316 315 313 312 310 308 306 303 301 300 298 297 295 294 292 291 291 291 290 289 288 287 286 284 283 281 280 278 277 275 274
296 297 299 300 300 299 297 298 300 301 303 305 307 307 306 306 306 306 307 307 305 302 299 297 296 296 297 296 296 297 299 301 301 301 301 300 301 303 307 308 308 307 307 310 313 315 316 316 316 317 317 317 317 317 317 317 316 314 312 310 308 305 303 301 300 299 299 298 297 296 295 295 294 293 291 289 287 285 283 282 280 278 277 276 275 275
297 298 299 299 298 297 297 299 301 305 308 311 310 308 306 306 306 306 306 305 302 299 297 296 295 294 294 294 294 295 298 300 301 301 301 300 301 304 309 309 308 306 305 308 312 315 315 314 314 315 316 317 317 317 317 317 316 315 313 311 308 306 304 303 302 302 301 301 300 298 297 295 293 291 289 287 285 284 282 281 279 278 278 277 276 275
297 297 298 298 297 298 300 302 306 311 315 315 312 309 310 308 307 306 305 302 299 297 296 295 293 293 293 293 295 297 300 303 304 303 301 298 298 302 308 309 307 304 302 306 309 311 312 311 311 313 314 315 316 317 316 316 316 315 314 312 310 308 307 306 306 305 304 302 300 298 296 294 292 289 288 286 286 285 284 283 281 280 279 278 276 275
294 295 297 299 301 303 306 308 311 314 314 313 311 309 309 307 305 302 298 294 292 292 292 293 294 295 295 296 298 301 305 308 308 306 300 296 296 300 305 307 305 302 302 306 308 309 309 308 309 311 312 313 314 315 315 316 316 316 315 313 312 311 310 309 308 307 304 302 300 298 295 293 292 290 289 289 288 288 287 286 284 283 281 280 278 276
295 297 300 303 306 307 308 308 308 307 306 304 302 300 298 295 291 288 286 286 288 291 293 296 298 298 299 301 303 306 309 311 309 305 299 296 297 300 304 305 303 302 303 306 308 308 306 305 306 307 309 311 312 314 315 316 316 316 316 315 314 313 311 310 309 307 304 302 300 299 297 296 295 294 293 292 291 290 289 288 287 286 284 282 280 278
300 302 304 305 305 305 303 301 299 296 295 292 290 288 287 286 286 287 288 290 293 296 299 301 300 300 302 304 304 306 309 311 309 304 300 297 297 299 303 305 304 303 303 305 306 305 303 302 303 305 307 310 313 315 316 317 317 317 316 315 313 312 311 310 308 307 305 304 303 302 301 300 298 297 295 294 292 291 290 289 288 287 286 284 281 279
305 305 305 305 304 302 300 297 295 293 291 289 287 286 287 288 290 292 294 296 299 302 303 301 300 300 302 303 303 304 307 309 308 305 303 300 297 297 301 305 305 303 303 303 303 302 301 301 301 304 307 310 313 315 316 316 316 316 315 314 312 312 311 310 309 309 308 307 306 305 304 303 301 299 298 296 294 293 291 290 288 287 285 284 282 280
308 308 307 306 305 303 301 300 298 297 296 295 295 295 295 295 296 296 297 300 304 304 302 299 298 299 301 301 302 304 306 307 307 307 307 302 296 294 299 303 304 303 302 302 303 303 301 301 302 304 308 310 312 313 314 314 314 314 313 313 313 313 313 312 312 311 310 310 309 307 306 305 303 302 299 297 295 293 292 290 289 287 286 284 282 280
312 311 310 308 306 305 304 303 303 303 303 303 304 305 303 301 299 298 300 305 307 304 301 299 298 298 299 300 302 304 304 305 307 310 308 301 296 295 300 302 303 302 303 303 304 304 302 301 301 303 305 307 308 309 310 312 313 313 314 315 316 316 315 315 314 313 312 311 310 308 307 306 305 303 301 298 296 294 293 292 291 289 288 286 283 281
310 309 308 307 307 307 306 306 306 307 308 310 312 313 311 308 306 305 308 311 309 304 300 299 299 299 299 300 302 302 302 304 308 309 306 300 297 297 301 302 303 303 304 304 305 304 302 302 301 301 302 303 305 306 308 310 312 314 315 316 317 317 317 316 315 314 313 312 311 309 308 307 306 304 302 301 299 297 295 294 293 291 289 287 285 283
305 305 306 307 308 308 308 308 309 311 315 318 319 319 318 316 314 314 313 312 309 305 301 299 298 298 297 297 296 296 297 302 307 309 305 299 297 298 301 302 302 303 304 303 302 301 301 302 302 302 302 302 303 305 307 310 312 314 315 315 315 316 317 316 315 313 312 312 311 310 309 308 307 306 305 303 302 300 298 297 295 293 291 289 287 285
306 307 307 309 309 309 309 311 315 319 322 324 324 323 322 320 318 316 314 311 308 305 301 298 297 297 296 294 291 289 292 299 307 310 306 301 298 299 300 301 301 302 303 301 298 295 296 297 300 302 302 302 302 304 306 309 310 312 313 313 313 314 316 315 313 312 312 312 311 311 310 310 309 308 308 306 305 304 303 300 298 295 292 290 289 288
308 309 309 309 309 310 314 319 323 326 327 326 325 324 323 321 319 317 314 311 308 304 301 298 297 296 296 294 291 290 293 299 306 310 307 301 298 297 299 299 300 300 301 300 297 294 292 293 296 299 301 301 301 302 304 306 308 310 311 310 310 312 313 314 312 311 311 312 312 312 312 312 312 311 310 309 308 307 306 303 300 297 294 293 292 291
309 308 307 308 311 316 322 327 329 329 328 327 325 323 322 321 319 317 315 312 308 304 300 298 296 295 295 294 293 294 296 302 307 309 307 301 298 297 298 299 299 299 299 299 298 295 293 293 294 297 299 300 300 300 301 303 306 308 309 308 307 308 310 311 311 311 312 312 312 313 314 314 314 314 313 312 311 310 308 306 303 300 296 293 291 290
307 307 309 314 319 324 328 330 330 329 327 326 324 322 321 320 319 317 315 313 310 307 303 300 298 296 294 293 293 294 298 304 309 310 307 303 300 299 298 298 298 298 298 297 297 296 294 294 294 295 297 298 299 300 300 301 304 306 307 306 305 306 308 309 310 310 311 312 312 313 314 315 315 315 314 314 313 312 310 307 304 301 297 292 288 285
307 312 318 323 327 328 328 328 328 327 326 325 323 321 321 320 319 318 317 315 312 310 307 304 302 299 297 294 293 294 298 305 310 312 310 307 304 301 298 298 298 298 297 296 296 296 295 295 295 296 296 296 297 299 301 303 304 305 305 306 306 307 308 309 310 310 310 311 312 313 314 314 314 314 314 314 313 312 310 307 304 300 297 293 288 284
317 323 326 328 328 327 326 325 325 324 324 324 324 322 321 321 320 319 319 318 316 314 312 310 308 306 304 302 299 299 303 308 312 314 314 312 309 304 300 299 300 299 297 296 296 296 295 295 295 296 295 294 294 296 299 303 305 305 305 306 307 307 308 310 311 310 309 309 310 311 312 312 312 311 312 312 312 311 309 306 304 302 300 298 295 291
326 328 328 328 327 325 324 322 322 323 323 323 323 323 322 322 321 321 321 321 320 319 317 315 314 312 311 309 308 307 309 311 313 315 317 316 313 308 303 301 302 302 301 299 298 297 295 293 292 293 294 294 294 295 298 301 302 303 305 307 307 307 308 309 310 310 308 307 308 308 309 309 309 309 309 310 310 310 309 308 307 306 305 304 301 298
327 327 327 327 325 323 322 321 321 323 323 323 323 323 323 323 324 324 324 324 323 321 320 318 317 315 314 313 312 312 313 314 315 317 318 318 316 312 307 304 303 304 305 303 301 298 295 292 291 291 292 293 295 297 299 300 301 302 304 307 307 308 308 309 309 308 306 305 305 306 307 308 308 308 308 310 310 310 309 309 310 309 308 307 305 302
326 325 326 325 324 322 321 321 322 323 323 323 323 324 325 326 327 327 327 326 325 324 322 321 319 317 316 315 315 315 316 317 318 319 319 319 318 316 312 307 305 305 306 305 303 300 297 294 292 292 292 292 294 296 298 300 301 302 303 302 302 303 307 308 307 306 306 305 305 305 306 307 308 307 307 308 308 308 307 308 308 308 307 305 303 301
325 324 325 324 323 322 323 324 324 323 324 324 324 325 328 330 331 331 330 329 327 326 324 323 322 320 318 316 316 317 318 319 320 321 321 320 320 318 314 311 309 308 307 305 304 301 298 295 294 294 294 294 295 296 297 299 300 301 300 297 297 300 305 307 307 307 306 306 305 305 305 305 305 305 306 306 306 307 307 307 306 305 304 302 300 298
325 325 325 324 324 324 325 325 325 324 324 324 325 328 330 332 331 331 330 329 328 327 327 326 325 323 321 320 320 320 321 322 322 322 322 322 321 319 317 314 313 311 309 305 303 301 300 298 296 295 295 296 296 295 296 298 301 301 299 297 298 301 304 306 307 307 305 304 303 303 302 302 303 304 305 305 306 306 306 305 303 301 300 299 298 297
327 326 326 326 326 327 327 326 326 326 326 326 327 328 330 331 331 330 328 326 326 327 327 328 326 324 322 322 322 323 324 324 324 323 323 323 323 321 319 318 316 314 311 306 302 301 302 301 298 297 298 298 297 294 294 296 299 300 300 300 299 298 297 300 305 306 304 303 302 302 302 303 304 305 306 306 305 305 305 303 300 298 298 298 297 297
328 327 328 328 329 328 327 327 327 327 327 327 327 328 330 331 331 331 328 326 326 327 327 328 327 325 322 320 322 324 325 325 325 325 325 325 324 323 321 320 318 317 314 308 303 301 302 301 300 300 301 300 298 295 294 295 296 298 300 302 300 296 293 296 301 303 303 302 302 303 304 305 306 306 305 304 303 303 302 302 301 300 299 299 298 297
329 329 329 329 329 328 328 328 329 329 329 329 329 330 331 332 333 332 328 327 327 327 327 328 326 322 317 318 321 324 325 326 326 327 327 327 327 326 324 322 320 319 316 312 308 305 302 300 301 303 305 302 299 295 293 293 295 297 300 302 302 299 298 299 300 300 299 300 302 303 305 306 305 303 301 300 300 299 299 298 297 297 297 297 296 295
330 329 328 328 329 329 331 331 332 331 331 331 331 332 334 334 334 333 330 329 327 327 327 327 324 320 316 317 320 322 323 325 327 328 329 330 330 329 328 326 324 321 318 315 313 310 306 303 303 304 304 302 299 297 295 295 294 295 298 301 302 300 299 299 299 299 299 299 301 303 305 306 304 300 297 297 297 297 296 295 293 293 293 293 293 293
329 328 328 329 330 332 333 333 333 333 334 334 334 335 335 336 335 333 331 330 329 328 328 327 325 321 318 319 319 320 320 321 323 326 328 330 331 331 330 329 328 325 322 318 315 313 310 309 308 305 302 298 296 296 299 299 298 296 297 299 300 299 298 298 299 301 301 300 300 302 304 303 300 297 296 296 295 295 294 293 292 292 291 291 291 291
328 328 329 330 331 333 333 334 334 335 336 337 337 337 336 336 335 333 332 331 330 329 328 327 325 323 321 321 321 321 319 318 319 321 324 326 329 331 331 330 329 328 325 322 318 316 314 313 311 307 302 297 293 294 298 301 301 299 299 299 298 296 295 297 299 301 301 300 300 300 301 299 297 295 296 295 295 294 293 292 292 291 291 290 290 290
328 328 329 330 331 332 333 333 334 335 337 339 339 338 337 337 336 334 332 332 331 331 329 327 325 323 321 321 322 323 321 319 319 320 321 323 325 326 328 328 328 328 326 324 322 320 318 316 313 309 305 299 294 294 296 299 301 301 299 297 296 294 294 295 297 298 298 298 298 299 299 298 297 297 296 295 293 292 292 292 292 291 291 290 290 290
328 328 328 329 329 330 331 332 333 336 338 340 340 339 338 337 337 336 335 334 333 332 330 328 325 323 321 321 322 323 321 320 320 320 321 322 323 323 324 325 325 324 323 322 321 319 317 314 311 309 306 301 296 293 293 295 298 298 296 294 293 293 292 293 294 295 296 297 297 298 299 299 299 298 297 294 292 291 292 292 291 291 291 291 291 291
328 328 327 327 327 328 329 330 333 336 339 340 340 339 339 339 339 338 337 336 334 333 332 330 327 324 321 321 322 322 321 320 319 319 320 322 323 322 322 322 322 321 318 316 315 314 311 308 307 306 305 304 300 294 290 291 292 293 291 291 292 292 291 291 293 295 296 297 298 299 299 299 299 298 296 293 291 290 290 290 291 291 291 291 291 291